Volver al catálogo

PELICAN-11

ActivoCienciaSSO
NORAD 69871·PAYLOAD·🇺🇸 United States

Lanzado Jul 7, 2026 desde Vandenberg Space Force Base

Loading…

Próximos Pases (próximas 24 horas)

TLE

ActualizadoSource: CelesTrak SupGP

Época: Sep 14, 2026, 20:44 UTC

1 69871C 26156C   26257.86442130  .00001496  00000+0  13841-3 0  2577
2 69871  97.7182 157.2092 0004156 356.9311  57.8895 14.94621669    18

Sigue PELICAN-11 en tiempo real con AllMySat

Download on the App Store